• In Denmark
  • List of Countries
  • For 7 days
  • Water Temperature
  • Satellite Maps
  • Weather Map
  • Weather Widgets
  • user-avatar
    Login

    Hourly Weather Beriktas

    Today, 21 August, Tuesday

    Time Temperature Precipitation Wind Pressure Humidity
    00:00 +22°C° 0 mm 3 mps 652 mmHg 39%
    01:00 +21°C° 0 mm 4 mps 653 mmHg 43%
    02:00 +21°C° 0 mm 4 mps 653 mmHg 47%
    03:00 +20°C° 0.2 mm 4 mps 654 mmHg 56%
    04:00 +18°C° 0.2 mm 4 mps 654 mmHg 66%
    05:00 +17°C° 0 mm 3 mps 655 mmHg 77%
    06:00 +17°C° 2 mm 3 mps 655 mmHg 78%
    07:00 +17°C° 2 mm 3 mps 655 mmHg 79%
    08:00 +17°C° 2 mm 3 mps 655 mmHg 80%
    09:00 +18°C° 0.1 mm 4 mps 656 mmHg 72%
    10:00 +20°C° 0.1 mm 4 mps 657 mmHg 64%
    11:00 +21°C° 0 mm 4 mps 658 mmHg 57%
    12:00 +21°C° 0 mm 4 mps 658 mmHg 56%
    13:00 +21°C° 0 mm 4 mps 658 mmHg 54%
    14:00 +21°C° 0 mm 4 mps 657 mmHg 53%
    15:00 +21°C° 0 mm 4 mps 657 mmHg 53%
    16:00 +21°C° 0 mm 3 mps 657 mmHg 52%
    17:00 +21°C° 0 mm 3 mps 657 mmHg 52%
    18:00 +20°C° 0 mm 3 mps 657 mmHg 56%
    19:00 +18°C° 0 mm 2 mps 657 mmHg 60%
    20:00 +17°C° 0 mm 2 mps 657 mmHg 64%
    21:00 +17°C° 0 mm 2 mps 657 mmHg 63%
    22:00 +17°C° 0 mm 2 mps 657 mmHg 63%
    23:00 +18°C° 0 mm 1 mps 657 mmHg 63%

    Tomorrow, 22 August, Wednesday

    Time Temperature Precipitation Wind Pressure Humidity
    00:00 +16°C° 0 mm 1 mps 657 mmHg 64%
    01:00 +16°C° 0 mm 1 mps 657 mmHg 65%
    02:00 +15°C° 0 mm 1 mps 656 mmHg 66%
    03:00 +15°C° 0 mm 1 mps 656 mmHg 67%
    04:00 +15°C° 0 mm 1 mps 656 mmHg 67%
    05:00 +14°C° 0 mm 1 mps 656 mmHg 68%
    06:00 +16°C° 0 mm 1 mps 657 mmHg 63%
    07:00 +18°C° 0 mm 1 mps 657 mmHg 58%
    08:00 +19°C° 0 mm 1 mps 658 mmHg 54%
    09:00 +19°C° 0 mm 2 mps 658 mmHg 52%
    10:00 +20°C° 0 mm 2 mps 658 mmHg 50%
    11:00 +21°C° 0 mm 3 mps 658 mmHg 47%
    12:00 +21°C° 0 mm 3 mps 658 mmHg 46%
    13:00 +22°C° 0 mm 3 mps 657 mmHg 44%
    14:00 +22°C° 0 mm 3 mps 657 mmHg 42%
    15:00 +22°C° 0 mm 3 mps 657 mmHg 42%
    16:00 +21°C° 0 mm 3 mps 657 mmHg 42%
    17:00 +21°C° 0 mm 3 mps 657 mmHg 42%
    18:00 +19°C° 0 mm 3 mps 657 mmHg 45%
    19:00 +18°C° 0 mm 2 mps 657 mmHg 49%
    20:00 +16°C° 0 mm 1 mps 656 mmHg 52%
    21:00 +16°C° 0 mm 1 mps 656 mmHg 53%
    22:00 +15°C° 0 mm 2 mps 656 mmHg 54%
    23:00 +15°C° 0 mm 2 mps 656 mmHg 55%

    Day after tomorrow, 23 August, Thursday

    Time Temperature Precipitation Wind Pressure Humidity
    00:00 +15°C° 0 mm 2 mps 656 mmHg 56%
    01:00 +14°C° 0 mm 2 mps 656 mmHg 57%
    02:00 +14°C° 0 mm 2 mps 655 mmHg 57%
    03:00 +14°C° 0 mm 2 mps 655 mmHg 56%
    04:00 +14°C° 0 mm 2 mps 655 mmHg 54%
    05:00 +14°C° 0 mm 2 mps 655 mmHg 53%
    06:00 +16°C° 0 mm 2 mps 656 mmHg 47%
    07:00 +19°C° 0 mm 1 mps 656 mmHg 42%
    08:00 +20°C° 0 mm 1 mps 657 mmHg 36%
    09:00 +21°C° 0 mm 1 mps 657 mmHg 35%
    10:00 +21°C° 0 mm 2 mps 657 mmHg 34%
    11:00 +23°C° 0 mm 2 mps 657 mmHg 32%
    12:00 +24°C° 0 mm 2 mps 657 mmHg 31%
    13:00 +25°C° 0 mm 2 mps 657 mmHg 30%
    14:00 +25°C° 0 mm 3 mps 656 mmHg 29%
    15:00 +25°C° 0 mm 3 mps 656 mmHg 29%
    16:00 +24°C° 0 mm 3 mps 656 mmHg 30%
    17:00 +24°C° 0 mm 3 mps 656 mmHg 30%
    18:00 +21°C° 0 mm 3 mps 656 mmHg 34%
    19:00 +19°C° 0 mm 2 mps 655 mmHg 38%
    20:00 +18°C° 0 mm 2 mps 655 mmHg 42%
    21:00 +17°C° 0 mm 2 mps 655 mmHg 43%
    22:00 +17°C° 0 mm 2 mps 654 mmHg 45%
    23:00 +17°C° 0 mm 2 mps 654 mmHg 46%

    24 August, Friday

    Time Temperature Precipitation Wind Pressure Humidity
    00:00 +16°C° 0 mm 2 mps 654 mmHg 47%
    01:00 +16°C° 0 mm 2 mps 654 mmHg 48%
    02:00 +16°C° 0 mm 2 mps 653 mmHg 49%
    03:00 +16°C° 0 mm 2 mps 653 mmHg 50%
    04:00 +16°C° 0 mm 2 mps 653 mmHg 51%
    05:00 +15°C° 0 mm 2 mps 653 mmHg 52%
    06:00 +17°C° 0 mm 2 mps 653 mmHg 47%
    07:00 +19°C° 0 mm 2 mps 654 mmHg 43%
    08:00 +21°C° 0 mm 2 mps 655 mmHg 38%
    09:00 +23°C° 0 mm 2 mps 655 mmHg 34%
    10:00 +25°C° 0 mm 2 mps 655 mmHg 31%
    11:00 +26°C° 0 mm 2 mps 655 mmHg 27%
    12:00 +26°C° 0 mm 3 mps 654 mmHg 26%
    13:00 +27°C° 0 mm 3 mps 654 mmHg 25%
    14:00 +27°C° 0 mm 4 mps 654 mmHg 24%
    15:00 +27°C° 0 mm 4 mps 654 mmHg 25%
    16:00 +26°C° 0 mm 4 mps 654 mmHg 26%
    17:00 +26°C° 0 mm 4 mps 654 mmHg 27%
    18:00 +24°C° 0 mm 3 mps 654 mmHg 31%
    19:00 +21°C° 0 mm 3 mps 654 mmHg 34%
    20:00 +19°C° 0 mm 2 mps 654 mmHg 37%
    21:00 +19°C° 0 mm 2 mps 654 mmHg 36%
    22:00 +19°C° 0 mm 3 mps 654 mmHg 36%
    23:00 +18°C° 0 mm 3 mps 654 mmHg 36%

    25 August, Saturday

    Time Temperature Precipitation Wind Pressure Humidity
    00:00 +18°C° 0 mm 3 mps 654 mmHg 37%
    01:00 +18°C° 0 mm 3 mps 653 mmHg 38%
    02:00 +18°C° 0 mm 3 mps 653 mmHg 38%
    03:00 +17°C° 0 mm 3 mps 653 mmHg 40%
    04:00 +17°C° 0 mm 3 mps 653 mmHg 41%
    05:00 +17°C° 0 mm 3 mps 653 mmHg 42%
    06:00 +19°C° 0 mm 3 mps 654 mmHg 39%
    07:00 +20°C° 0 mm 3 mps 654 mmHg 36%
    08:00 +22°C° 0 mm 3 mps 655 mmHg 34%
    09:00 +24°C° 0 mm 3 mps 655 mmHg 32%
    10:00 +25°C° 0 mm 3 mps 655 mmHg 31%
    11:00 +26°C° 0 mm 3 mps 655 mmHg 29%
    12:00 +26°C° 0 mm 3 mps 655 mmHg 29%
    13:00 +27°C° 0 mm 3 mps 654 mmHg 28%
    14:00 +27°C° 0 mm 3 mps 654 mmHg 28%
    15:00 +27°C° 0 mm 3 mps 654 mmHg 29%
    16:00 +26°C° 0 mm 3 mps 654 mmHg 31%
    17:00 +26°C° 0 mm 3 mps 654 mmHg 32%
    18:00 +24°C° 0 mm 3 mps 653 mmHg 37%
    19:00 +21°C° 0 mm 2 mps 653 mmHg 42%
    20:00 +19°C° 0 mm 2 mps 653 mmHg 47%
    21:00 +19°C° 0 mm 2 mps 652 mmHg 47%
    22:00 +18°C° 0 mm 2 mps 652 mmHg 48%
    23:00 +18°C° 0 mm 2 mps 651 mmHg 48%

    26 August, Sunday

    Time Temperature Precipitation Wind Pressure Humidity
    00:00 +18°C° 0 mm 2 mps 651 mmHg 48%
    01:00 +17°C° 0 mm 2 mps 651 mmHg 48%
    02:00 +17°C° 0 mm 2 mps 650 mmHg 48%
    03:00 +17°C° 0 mm 2 mps 650 mmHg 48%
    04:00 +17°C° 0 mm 2 mps 650 mmHg 47%
    05:00 +16°C° 0 mm 2 mps 650 mmHg 47%
    06:00 +19°C° 0 mm 1 mps 651 mmHg 42%
    07:00 +21°C° 0 mm 1 mps 651 mmHg 38%
    08:00 +23°C° 0 mm 1 mps 652 mmHg 33%
    09:00 +24°C° 0 mm 2 mps 652 mmHg 33%
    10:00 +25°C° 0 mm 3 mps 652 mmHg 32%
    11:00 +26°C° 0 mm 3 mps 653 mmHg 31%
    12:00 +25°C° 0.2 mm 4 mps 653 mmHg 33%
    13:00 +25°C° 0.2 mm 4 mps 653 mmHg 35%
    14:00 +25°C° 0.2 mm 5 mps 653 mmHg 38%
    15:00 +23°C° 0.3 mm 5 mps 653 mmHg 39%
    16:00 +22°C° 0.3 mm 5 mps 653 mmHg 40%
    17:00 +22°C° 0.3 mm 5 mps 653 mmHg 41%
    18:00 +20°C° 0.1 mm 4 mps 653 mmHg 43%
    19:00 +18°C° 0.1 mm 3 mps 653 mmHg 45%
    20:00 +16°C° 0.1 mm 2 mps 653 mmHg 47%
    21:00 +16°C° 0 mm 2 mps 653 mmHg 47%
    22:00 +16°C° 0 mm 2 mps 653 mmHg 48%
    23:00 +15°C° 0 mm 2 mps 653 mmHg 48%
    Show more